TimeCST,TemperatureF,Dew PointF,Humidity,Sea Level PressureIn,VisibilityMPH,Wind Direction,Wind SpeedMPH,Gust SpeedMPH,PrecipitationIn,Events,Conditions,WindDirDegrees,DateUTC
12:53 AM,-11.0,-17.0,75,30.35,10.0,WSW,6.9,-,N/A,,Clear,240,2014-01-07 06:53:00
1:53 AM,-8.0,-14.1,75,30.35,10.0,WSW,9.2,-,N/A,,Clear,240,2014-01-07 07:53:00
2:53 AM,-7.1,-14.1,72,30.32,10.0,WSW,8.1,-,N/A,,Clear,250,2014-01-07 08:53:00
3:53 AM,-8.0,-14.1,75,30.32,10.0,West,8.1,-,N/A,,Clear,260,2014-01-07 09:53:00
4:53 AM,-8.0,-14.1,75,30.29,10.0,WSW,3.5,-,N/A,,Clear,240,2014-01-07 10:53:00
5:53 AM,-6.0,-11.9,75,30.28,10.0,South,6.9,-,N/A,,Partly Cloudy,190,2014-01-07 11:53:00
6:53 AM,-5.1,-11.0,76,30.29,10.0,SSW,8.1,-,N/A,,Overcast,200,2014-01-07 12:53:00
7:53 AM,-2.9,-9.9,72,30.27,10.0,South,5.8,-,N/A,,Overcast,180,2014-01-07 13:53:00
8:53 AM,-2.0,-9.0,72,30.27,10.0,SSE,8.1,-,N/A,,Partly Cloudy,160,2014-01-07 14:53:00
9:53 AM,1.0,-7.1,69,30.26,10.0,SE,6.9,-,N/A,,Overcast,130,2014-01-07 15:53:00
10:53 AM,1.9,-5.1,72,30.25,10.0,ESE,9.2,-,N/A,,Overcast,120,2014-01-07 16:53:00
11:53 AM,5.0,-2.9,70,30.20,10.0,ESE,10.4,-,N/A,,Overcast,120,2014-01-07 17:53:00
12:53 PM,7.0,-0.0,73,30.16,10.0,East,10.4,-,N/A,,Overcast,100,2014-01-07 18:53:00
1:53 PM,9.0,-0.9,64,30.17,10.0,East,6.9,-,N/A,,Scattered Clouds,100,2014-01-07 19:53:00
2:53 PM,9.0,-0.0,67,30.19,10.0,Variable,5.8,-,N/A,,Clear,0,2014-01-07 20:53:00
3:53 PM,9.0,-0.0,67,30.20,10.0,ESE,3.5,-,N/A,,Clear,120,2014-01-07 21:53:00
4:53 PM,5.0,-0.9,76,30.24,10.0,ENE,5.8,-,N/A,,Clear,70,2014-01-07 22:53:00
5:53 PM,3.0,-2.9,76,30.26,10.0,ENE,6.9,-,N/A,,Clear,70,2014-01-07 23:53:00
6:53 PM,1.9,-4.0,76,30.27,10.0,NE,6.9,-,N/A,,Clear,50,2014-01-08 00:53:00
7:53 PM,3.0,-2.9,76,30.28,10.0,ESE,3.5,-,N/A,,Mostly Cloudy,110,2014-01-08 01:53:00
8:53 PM,3.9,-0.9,80,30.29,10.0,Calm,Calm,-,N/A,,Overcast,0,2014-01-08 02:53:00
9:53 PM,3.9,-2.0,76,30.31,10.0,Calm,Calm,-,N/A,,Overcast,0,2014-01-08 03:53:00
10:53 PM,3.9,-0.9,80,30.30,10.0,Calm,Calm,-,N/A,,Overcast,0,2014-01-08 04:53:00
11:53 PM,-0.0,-5.1,79,30.31,10.0,NE,4.6,-,N/A,,Clear,40,2014-01-08 05:53:00